DW2849 Weather Reports


Display with metric or nautical units.
time (UTC)temp
F
wind
direction
speed
MPH
gust
MPH
rain 1hr
in
rain 24hr
in
rain mn
in
humidity
%
barometer
mb
20260509062712 59 315 0.0 2.0 0.00 0.00 0.00 67 1015.0
20260509062012 59 340 1.0 2.0 0.00 0.00 0.00 68 1015.1
20260509061312 58 270 1.0 3.0 0.00 0.00 0.00 69 1015.2
20260509060613 59 285 2.0 3.0 0.00 0.00 0.00 69 1015.2
20260509055912 59 270 1.0 2.0 0.00 0.00 0.00 69 1015.3
20260509055212 59 270 1.0 2.0 0.00 0.00 0.00 69 1015.3
20260509054321 59 270 1.0 2.0 0.00 0.00 0.00 70 1015.2
20260509053621 59 315 1.0 2.0 0.00 0.00 0.00 71 1015.4
20260509052921 59 315 1.0 2.0 0.00 0.00 0.00 71 1015.4
20260509052030 59 315 1.0 2.0 0.00 0.00 0.00 71 1015.4
20260509051330 59 270 2.0 3.0 0.00 0.00 0.00 72 1015.3
20260509050629 59 270 2.0 3.0 0.00 0.00 0.00 73 1015.4
20260509045929 59 270 2.0 3.0 0.00 0.00 0.00 74 1015.3
20260509045229 59 270 2.0 3.0 0.00 0.00 0.00 74 1015.3
20260509044338 59 222 0.0 0.0 0.00 0.00 0.00 74 1015.3
20260509043638 60 225 0.0 2.0 0.00 0.00 0.00 72 1015.2
20260509042747 61 315 0.0 2.0 0.00 0.00 0.00 72 1015.1
20260509042047 61 315 1.0 2.0 0.00 0.00 0.00 73 1015.1
20260509041347 61 315 1.0 2.0 0.00 0.00 0.00 74 1015.0
20260509040647 60 322 0.0 2.0 0.00 0.00 0.00 80 1015.1
20260509035947 61 270 1.0 2.0 0.00 0.00 0.00 80 1015.0
20260509035247 61 315 2.0 2.0 0.00 0.00 0.00 79 1014.9
20260509034547 61 315 2.0 2.0 0.00 0.00 0.00 80 1014.9
20260509033847 61 350 1.0 2.0 0.00 0.00 0.00 78 1015.0
20260509033147 62 0 0.0 2.0 0.00 0.00 0.00 76 1014.9
20260509032257 62 0 0.0 2.0 0.00 0.00 0.00 75 1014.9
20260509031556 62 315 0.0 0.0 0.00 0.00 0.00 75 1014.8
20260509030855 63 0 0.0 0.0 0.00 0.00 0.00 77 1014.7
20260509030156 62 0 0.0 0.0 0.00 0.00 0.00 77 1014.6
20260509025306 61 315 0.0 0.0 0.00 0.00 0.00 76 1014.6
20260509024605 62 315 0.0 0.0 0.00 0.00 0.00 75 1014.6
20260509023905 62 315 0.0 2.0 0.00 0.00 0.00 75 1014.6
20260509023204 63 315 1.0 2.0 0.00 0.00 0.00 75 1014.6
20260509022317 63 315 1.0 2.0 0.00 0.00 0.00 74 1014.6
20260509021613 63 315 1.0 2.0 0.00 0.00 0.00 74 1014.6
20260509020914 64 315 1.0 3.0 0.00 0.00 0.00 73 1014.6
20260509020213 64 315 2.0 3.0 0.00 0.00 0.00 73 1014.6
20260509015513 65 321 1.0 3.0 0.00 0.00 0.00 73 1014.6
20260509014813 65 315 1.0 1.0 0.00 0.00 0.00 73 1014.7
20260509014114 65 343 0.0 1.0 0.00 0.00 0.00 74 1014.7
20260509013413 65 315 1.0 2.0 0.00 0.00 0.00 73 1014.7
20260509012520 66 315 2.0 3.0 0.00 0.00 0.00 72 1014.7
20260509011821 66 315 1.0 3.0 0.00 0.00 0.00 72 1014.8
20260509010930 66 0 1.0 3.0 0.00 0.00 0.00 72 1014.9
20260509010230 67 0 1.0 5.0 0.00 0.00 0.00 72 1014.9
20260509005531 67 298 2.0 5.0 0.00 0.00 0.00 72 1014.9
20260509004830 68 270 3.0 4.0 0.00 0.00 0.00 72 1015.0
20260509004129 68 248 2.0 3.0 0.00 0.00 0.00 70 1015.0
20260509003238 68 248 3.0 6.0 0.00 0.00 0.00 70 1015.0
20260509002538 68 302 1.0 5.0 0.00 0.00 0.00 70 1015.1
20260509001839 68 328 3.0 6.0 0.00 0.00 0.00 71 1015.2
20260509001138 69 245 2.0 4.0 0.00 0.00 0.00 70 1015.2
20260509000248 69 270 1.0 5.0 0.00 0.00 0.00 71 1015.2
20260508235547 69 212 2.0 5.0 0.00 0.00 0.00 70 1015.3
20260508234847 69 283 2.0 5.0 0.00 0.00 0.00 70 1015.4
20260508234147 69 228 3.0 6.0 0.00 0.00 0.00 71 1015.5
20260508233447 69 219 2.0 4.0 0.00 0.00 0.00 71 1015.5
20260508232404 69 248 3.0 6.0 0.00 0.00 0.00 71 1015.6
20260508231704 69 259 3.0 5.0 0.00 0.00 0.00 70 1015.6
20260508231004 69 315 1.0 6.0 0.00 0.00 0.00 70 1015.6
20260508230304 69 248 4.0 6.0 0.00 0.00 0.00 71 1015.8
20260508225604 69 264 2.0 5.0 0.00 0.00 0.00 71 1015.8
20260508224712 70 270 2.0 4.0 0.00 0.00 0.00 71 1016.0
20260508224013 70 245 2.0 3.0 0.00 0.00 0.00 71 1016.0
20260508223313 70 219 2.0 5.0 0.00 0.00 0.00 70 1016.1
20260508222613 70 197 3.0 4.0 0.00 0.00 0.00 70 1016.2
20260508221721 70 225 2.0 4.0 0.00 0.00 0.00 72 1016.3
20260508221021 69 245 3.0 5.0 0.00 0.00 0.00 71 1016.4
20260508220321 70 199 3.0 6.0 0.00 0.00 0.00 71 1016.5
20260508215621 70 202 3.0 4.0 0.00 0.00 0.00 71 1016.5
20260508214921 70 211 2.0 4.0 0.00 0.00 0.00 72 1016.6
20260508214221 69 197 2.0 4.0 0.00 0.00 0.00 72 1016.7
20260508213521 69 197 3.0 5.0 0.00 0.00 0.00 71 1016.8
20260508212821 69 199 2.0 4.0 0.00 0.00 0.00 72 1016.9
20260508212121 68 219 3.0 4.0 0.00 0.00 0.00 72 1017.0
20260508211229 68 287 2.0 5.0 0.00 0.00 0.00 73 1017.0
20260508210337 67 208 3.0 4.0 0.00 0.00 0.00 73 1017.1
20260508205637 67 197 2.0 6.0 0.00 0.00 0.00 74 1017.1
20260508204937 68 219 4.0 6.0 0.00 0.00 0.00 73 1017.1
20260508204240 68 231 3.0 6.0 0.00 0.00 0.00 72 1017.1
20260508203346 68 270 3.0 6.0 0.00 0.00 0.00 73 1017.2
20260508202646 67 267 2.0 5.0 0.00 0.00 0.00 74 1017.2
20260508201946 67 214 3.0 4.0 0.00 0.00 0.00 74 1017.2
20260508201246 67 253 1.0 4.0 0.00 0.00 0.00 74 1017.3
20260508200546 0 231 3.0 4.0 0.00 0.00 0.00 1017.3
20260508195654 67 268 3.0 5.0 0.00 0.00 0.00 74 1017.4
20260508194955 67 298 2.0 4.0 0.00 0.00 0.00 74 1017.5
20260508194255 66 228 2.0 4.0 0.00 0.00 0.00 75 1017.6
20260508193554 65 215 2.0 4.0 0.00 0.00 0.00 76 1017.6
20260508192855 64 110 3.0 4.0 0.00 0.00 0.00 76 1017.6
20260508192003 64 155 2.0 4.0 0.00 0.00 0.00 76 1017.6
20260508191303 63 231 2.0 4.0 0.00 0.00 0.00 77 1017.6
20260508190603 63 108 2.0 5.0 0.00 0.00 0.00 77 1017.8
20260508185904 63 218 3.0 4.0 0.00 0.00 0.00 77 1017.9
20260508185203 62 205 3.0 4.0 0.00 0.00 0.00 78 1017.9
20260508184312 61 175 1.0 3.0 0.00 0.00 0.00 79 1017.9
20260508183612 60 118 2.0 4.0 0.00 0.00 0.00 80 1018.0
20260508182912 60 208 2.0 4.0 0.00 0.00 0.00 80 1018.1
20260508182212 59 175 1.0 2.0 0.00 0.00 0.00 81 1018.0
20260508181512 57 178 1.0 3.0 0.00 0.00 0.00 83 1018.1
20260508180812 56 280 1.0 4.0 0.00 0.00 0.00 84 1018.1
20260508180112 55 180 1.0 3.0 0.00 0.00 0.00 85 1018.0
20260508175221 54 260 3.0 4.0 0.00 0.00 0.00 87 1018.1
20260508174520 53 205 1.0 3.0 0.00 0.00 0.00 88 1018.1
20260508173822 53 198 1.0 3.0 0.00 0.00 0.00 88 1018.1
20260508172929 52 238 1.0 3.0 0.00 0.00 0.00 89 1018.1
20260508172229 52 220 1.0 4.0 0.00 0.00 0.00 88 1018.2
20260508171530 52 180 1.0 5.0 0.00 0.00 0.00 88 1018.1
20260508170829 51 225 3.0 5.0 0.00 0.00 0.00 89 1018.0
20260508170131 51 252 1.0 4.0 0.00 0.00 0.00 89 1018.0
20260508165429 0 220 1.0 3.0 0.00 0.00 0.00 1018.0
20260508164729 52 230 1.0 3.0 0.00 0.00 0.00 89 1018.0
20260508164029 51 250 2.0 3.0 0.00 0.00 0.00 88 1017.9
20260508163329 51 220 1.0 3.0 0.00 0.00 0.00 89 1017.9
20260508162629 50 230 1.0 4.0 0.00 0.00 0.00 89 1017.9
20260508161545 51 222 1.0 3.0 0.00 0.00 0.00 89 1017.9
20260508160845 51 335 1.0 3.0 0.00 0.00 0.00 89 1017.9
20260508160145 51 210 2.0 3.0 0.00 0.00 0.00 88 1017.8
20260508155445 50 228 0.0 2.0 0.00 0.00 0.00 88 1017.8
20260508154745 50 125 1.0 2.0 0.00 0.00 0.00 88 1017.8
20260508154045 50 235 1.0 2.0 0.00 0.00 0.00 89 1017.7
20260508153345 50 315 0.0 2.0 0.00 0.00 0.00 88 1017.7
20260508152645 49 340 1.0 2.0 0.00 0.00 0.00 89 1017.6
20260508151754 50 45 0.0 2.0 0.00 0.00 0.00 88 1017.5
20260508151054 49 12 1.0 2.0 0.00 0.00 0.00 89 1017.3
20260508150203 49 20 1.0 2.0 0.00 0.00 0.00 89 1017.2
20260508145503 49 0 1.0 2.0 0.00 0.00 0.00 89 1017.3
20260508144802 49 0 0.0 2.0 0.00 0.00 0.00 89 1017.4
20260508144103 49 0 0.0 2.0 0.00 0.00 0.00 89 1017.5
20260508143403 49 0 0.0 2.0 0.00 0.00 0.00 89 1017.2
20260508142703 48 35 1.0 2.0 0.00 0.00 0.00 89 1017.1
20260508142003 49 0 0.0 2.0 0.00 0.00 0.00 89 1017.1
20260508141303 49 45 0.0 2.0 0.00 0.00 0.00 89 1017.0
20260508140411 48 45 0.0 0.0 0.00 0.00 0.00 89 1017.1
20260508135711 48 45 0.0 0.0 0.00 0.00 0.00 89 1017.1
20260508135012 48 45 0.0 1.0 0.00 0.00 0.00 89 1017.0
20260508134120 48 45 1.0 2.0 0.00 0.00 0.00 89 1016.9
20260508133420 48 45 1.0 2.0 0.00 0.00 0.00 89 1016.9
20260508132720 48 60 0.0 0.0 0.00 0.00 0.00 89 1016.8
20260508132020 48 22 0.0 0.0 0.00 0.00 0.00 89 1016.8
20260508131320 48 325 0.0 0.0 0.00 0.00 0.00 89 1016.9
20260508130620 48 295 0.0 0.0 0.00 0.00 0.00 89 1016.9
20260508125728 48 0 0.0 0.0 0.00 0.00 0.00 89 1016.8
20260508125028 49 0 0.0 0.0 0.00 0.00 0.00 89 1016.8
20260508124329 49 0 0.0 0.0 0.00 0.00 0.00 89 1016.7
20260508123629 49 0 0.0 0.0 0.00 0.00 0.00 89 1016.7
20260508122929 49 0 0.0 2.0 0.00 0.00 0.00 88 1016.7
20260508122037 48 10 2.0 3.0 0.00 0.00 0.00 89 1016.6
20260508121338 48 0 0.0 2.0 0.00 0.00 0.00 89 1016.6
20260508120638 48 0 1.0 2.0 0.00 0.00 0.00 88 1016.6
20260508115938 48 0 1.0 2.0 0.00 0.00 0.00 88 1016.6
20260508115046 48 18 3.0 3.0 0.00 0.00 0.00 88 1016.5
20260508114346 48 45 2.0 3.0 0.00 0.00 0.00 88 1016.5
20260508113646 48 35 2.0 3.0 0.00 0.00 0.00 88 1016.5
20260508112947 48 17 2.0 2.0 0.00 0.00 0.00 88 1016.6
20260508112246 47 5 2.0 2.0 0.00 0.00 0.00 88 1016.6
20260508111546 47 32 2.0 2.0 0.00 0.00 0.00 88 1016.6
20260508110654 47 22 1.0 2.0 0.00 0.00 0.00 88 1016.6
20260508105955 47 0 0.0 2.0 0.00 0.00 0.00 88 1016.6
20260508105255 47 10 1.0 2.0 0.00 0.00 0.00 88 1016.6
20260508104555 46 17 1.0 2.0 0.00 0.00 0.00 88 1016.7
20260508103854 46 0 0.0 0.0 0.00 0.00 0.00 88 1016.8
20260508103003 46 0 0.0 0.0 0.00 0.00 0.00 89 1016.7
20260508102306 47 0 0.0 2.0 0.00 0.00 0.00 89 1016.6
20260508101605 47 0 1.0 2.0 0.00 0.00 0.00 88 1016.6
20260508100903 47 0 1.0 2.0 0.00 0.00 0.00 88 1016.6
20260508100203 47 315 1.0 2.0 0.00 0.00 0.00 88 1016.6
20260508095311 47 270 2.0 3.0 0.00 0.00 0.00 88 1016.6
20260508094612 47 270 1.0 2.0 0.00 0.00 0.00 88 1016.7
20260508093912 46 225 1.0 2.0 0.00 0.00 0.00 88 1016.8
20260508093212 46 225 2.0 2.0 0.00 0.00 0.00 88 1016.8
20260508092512 46 225 1.0 2.0 0.00 0.00 0.00 89 1016.7
20260508091812 46 225 1.0 2.0 0.00 0.00 0.00 89 1016.7
20260508091112 47 0 0.0 0.0 0.00 0.00 0.00 88 1016.6
20260508090222 47 0 0.0 0.0 0.00 0.00 0.00 88 1016.7
20260508085520 47 0 0.0 2.0 0.00 0.00 0.00 88 1016.7
20260508084821 47 0 1.0 2.0 0.00 0.00 0.00 88 1016.6
20260508084120 47 22 0.0 2.0 0.00 0.00 0.00 88 1016.6
20260508083229 47 45 2.0 3.0 0.00 0.00 0.00 88 1016.7
20260508082530 47 45 2.0 3.0 0.00 0.00 0.00 89 1016.6
20260508081829 48 45 2.0 2.0 0.00 0.00 0.00 89 1016.6
20260508081129 48 45 2.0 2.0 0.00 0.00 0.00 88 1016.6
20260508080429 48 45 1.0 2.0 0.00 0.00 0.00 88 1016.7
20260508075538 48 45 1.0 3.0 0.00 0.00 0.00 88 1016.6
20260508074839 48 45 3.0 3.0 0.00 0.00 0.00 88 1016.6
20260508074138 48 45 2.0 3.0 0.00 0.00 0.00 88 1016.7
20260508073438 48 45 3.0 4.0 0.00 0.00 0.00 88 1016.6
20260508072546 49 45 3.0 3.0 0.00 0.00 0.00 88 1016.6
20260508071847 49 45 2.0 2.0 0.00 0.00 0.00 88 1016.6
20260508071147 49 0 2.0 2.0 0.00 0.00 0.00 88 1016.6
20260508070447 49 0 0.0 2.0 0.00 0.00 0.00 88 1016.6
20260508065747 49 0 0.0 2.0 0.00 0.00 0.00 88 1016.5
20260508065047 49 0 1.0 2.0 0.00 0.00 0.00 88 1016.5
20260508064155 49 0 0.0 0.0 0.00 0.00 0.00 88 1016.5
20260508063455 49 315 0.0 0.0 0.00 0.00 0.00 88 1016.6